sat.trackr.live / text

‹ back to catalog

YAOGAN-30 10B

NORAD 48861 · 2021-055B

PAYLOAD ACTIVE UNKNOWN

§ Identity

Operator
Country
PRC
Launch date
2021-06-18
Launch site
XICLF
Launch vehicle
Mass (kg)
RCS (m²)

External: N2YO · Heavens-Above · Gunter

§ Orbital elements

Epoch: 2026-05-24T20:38:42.449856Z

Period
95.84 min
Inclination
34.9956°
Eccentricity
0.0004642
Mean motion
15.02542425 rev/d
Perigee alt
555.8 km
Apogee alt
562.3 km
Semi-major
6,937.2 km
B*
1.8583e-4
RAAN
294.0348°
Arg perigee
243.1192°
Mean anomaly
116.9042°
Rev number
26,966

§ Raw data

YAOGAN-30 10B1 48861U 21055B   26144.86021354  .00002492  00000+0  18583-3 0  99902 48861  34.9956 294.0348 0004642 243.1192 116.9042 15.02542425269665

JSON: /api/v1/satellites/48861 · /tle

For live sub-satellite position, see the globe view (requires WebGL).

§ Visibility from observer

Set your observer location to see the next 7 days of passes ≥ 10°. The values pass through the URL so the page stays shareable.

No JS? Fill the form by hand. The geolocation button needs JavaScript.